Volver al catálogo

GALAXY 1R

ActivoComunicacionesGEO
NORAD 23016·PAYLOAD·🇺🇸 United States

Lanzado Feb 19, 1994 desde Cape Canaveral Space Force Station

Loading…

TLE

ActualizadoSource: Space-Track

Época: Sep 14, 2026, 05:04 UTC

1 23016U 94013A   26257.21172402 -.00000273  00000-0  00000-0 0  9993
2 23016  13.0337  21.7784 0002292 252.8214 119.7050  0.99224674 47073

Sigue GALAXY 1R en tiempo real con AllMySat

Download on the App Store